STARLINK-34609

Last updated on Fri Aug 08 2025 00:02:05 GMT+0000 (Coordinated Universal Time)

1 64768U 25147P 25218.55047707 .00053269 00000+0 95848-3 0 9994 2 64768 53.1602 164.8452 0001208 94.1631 265.9516 15.49333647 5773
UTC large
Height (km)
Speed (km/s)
/
Latitude / Longitude
Inclination (degrees)
Orbital Period (minutes)
Azimuth
Elevation
Range (km)
Doppler Factor

Next 0 passes for location: London (51.5072 / 0.1276)

Sorry there are no passes over London.